Regional Weather Roundup
Issued by NWS

Home | Current Version | Previous Version | Graphics & Text | Print | Product List | Glossary On
Versions: 1 2 3 4 5 6 7 8 9 10 11 12 13 14 15 16 17 18 19 20 21 22 23 24 25 26 27 28 29 30 31 32 33 34 35 36 37 38 39 40 41 42 43 44 45 46 47 48 49 50
000
ASUS44 KMEG 071210
RWRTN
TENNESSEE HOURLY STATE WEATHER ROUNDUP
NATIONAL WEATHER SERVICE MEMPHIS TN
600 AM CST WED DEC 07 2016

TNZ002-004-019-021-049-052-054-088>092-071300-
WEST TENNESSEE

CITY           SKY/WX    TMP DP  RH WIND       PRES   REMARKS
MEMPHIS INTL   CLOUDY    41  37  86 NE9       30.15R FOG
NWS MEMPHIS      N/A     40 N/A N/A MISG        N/A
JACKSON        CLOUDY    36  35  96 NE6       30.16R WCI  31
DYERSBURG      CLOUDY   N/A N/A N/A NE6       30.17R
UNION CITY     CLOUDY    34  34 100 N7        30.16R WCI  28
PARIS          CLOUDY    28  28 100 CALM      30.15S
HUNTINGDON     PTCLDY    32  32 100 CALM      30.15R FOG
LEXINGTON      CLOUDY    37  36  93 CALM      30.13R
$$

TNZ008-025-027-028-033-062-065-066-071300-
NORTH MIDDLE TENNESSEE

CITY           SKY/WX    TMP DP  RH WIND       PRES   REMARKS
NASHVILLE      PTCLDY    36  31  82 N6        30.15R WCI  31
PORTLAND       PTCLDY    34  34 100 CALM      30.13S FOG
CLARKSVILLE    CLOUDY    32  29  88 N3        30.16R FOG
SMYRNA         CLOUDY    37  33  85 N7        30.15R WCI  32
GALLATIN       CLEAR     36  34  93 N5        30.16F WCI  32
CROSSVILLE     CLOUDY    37  33  85 NE7       30.07R WCI  32
$$

TNZ061-075-076-078-094-096-097-071300-
SOUTH MIDDLE TENNESSEE

CITY           SKY/WX    TMP DP  RH WIND       PRES   REMARKS
FAYETTEVILLE   CLOUDY    39  37  93 N8        30.09R WCI  34
TULLAHOMA      CLOUDY    37  36  93 N6        30.09S WCI  33
WINCHESTER     CLOUDY    39  36  87 N8        30.09R WCI  34
MCMINNVILLE    CLOUDY    39  36  87 N8          N/A  WCI  34
COLUMBIA       CLOUDY    37  37 100 N5        30.11R WCI  34
SHELBYVILLE    CLOUDY    39  37  93 N6        30.11S WCI  35
$$

TNZ017-018-042-046-047-071300-
NORTHEAST TENNESSEE

CITY           SKY/WX    TMP DP  RH WIND       PRES   REMARKS
TRI CITIES     PTCLDY    39  33  79 CALM      30.06R
$$

TNZ012-013-036-069-073-074-071300-
CENTRAL EAST TENNESSEE

CITY           SKY/WX    TMP DP  RH WIND       PRES   REMARKS
KNOXVILLE      CLOUDY    43  36  76 NE8       30.07R
OAK RIDGE      CLOUDY    43  35  73 VRB3      30.09R
DOWNTOWN KNOXV CLOUDY    45  37  76 CALM      30.08R
GATLINBURG     CLOUDY    43  37  81 CALM      30.07R
MORRISTOWN     CLOUDY    41  37  87 CALM      30.07R
JACKSBORO      CLOUDY    41  36  81 CALM      30.12R
$$

TNZ083-085-099-071300-
SOUTHEAST TENNESSEE

CITY           SKY/WX    TMP DP  RH WIND       PRES   REMARKS
CHATTANOOGA    MOCLDY    44  37  76 N9        30.07R
$$

SKY/WX REPORTED AS FAIR MEANS FEW OR NO CLOUDS BELOW
12 THOUSAND FEET.





USA.gov is the U.S. government's official web portal to all federal, state and local government web resources and services.